This is the latest recevied weather packets stored in our database for station/object EA5GTE-12. If no packets are shown the sender has not sent any weather packets the latest 10 day(s).
| Time | Temp. | Humidity | Pressure | Rain* | Wind** | Luminosity | Snow |
|---|---|---|---|---|---|---|---|
| 1777718232 | 19.44° C | 91% | 942.5 hPa | - | - | - | - |
| 1777717332 | 19.44° C | 95% | 942.7 hPa | - | - | - | - |
| 1777716432 | 17.78° C | 100% | 943.1 hPa | - | - | - | - |
| 1777715532 | 17.22° C | 100% | 943.1 hPa | - | - | - | - |
| 1777714632 | 17.22° C | 100% | 943.2 hPa | - | - | - | - |
| 1777713732 | 18.89° C | 98% | 942.9 hPa | - | - | - | - |
| 1777712832 | 17.22° C | 100% | 943.2 hPa | - | - | - | - |
| 1777711932 | 17.22° C | 100% | 943.1 hPa | - | - | - | - |
| 1777711032 | 16.11° C | 100% | 943 hPa | - | - | - | - |
| 1777710132 | 16.11° C | 100% | 943.1 hPa | - | - | - | - |
| 1777709232 | 15.56° C | 100% | 943 hPa | - | - | - | - |
| 1777708332 | 15.56° C | 100% | 943.2 hPa | - | - | - | - |
| 1777707431 | 15.56° C | 100% | 943.2 hPa | - | - | - | - |
| 1777706531 | 15.56° C | 100% | 943.4 hPa | - | - | - | - |
| 1777704732 | 14.44° C | 100% | 943.3 hPa | - | - | - | - |
| 1777703832 | 14.44° C | 100% | 943.4 hPa | - | - | - | - |
| 1777702931 | 13.89° C | 100% | 943.4 hPa | - | - | - | - |
| 1777702031 | 13.89° C | 100% | 943.2 hPa | - | - | - | - |
| 1777701131 | 13.33° C | 100% | 942.9 hPa | - | - | - | - |
| 1777700231 | 13.33° C | 100% | 943.1 hPa | - | - | - | - |
| 1777699331 | 13.33° C | 100% | 943 hPa | - | - | - | - |
| 1777698431 | 13.89° C | 100% | 943 hPa | - | - | - | - |
| 1777697531 | 13.89° C | 100% | 942.9 hPa | - | - | - | - |
| 1777696631 | 13.89° C | 100% | 942.9 hPa | - | - | - | - |
| 1777695731 | 13.89° C | 100% | 942.9 hPa | - | - | - | - |
* Rain since midnight (hover to see other rain measurements)
** Current wind speed in m/s (hover to see current wind gust speed)